www.pogodaiklimat.ru

Погода и климат >> Архив погоды >> Бразилия >> Рио-де-Жанейро >> Арраял-ду-Кабу


ПОГОДА в Арраял-ду-Кабу

  • Прогноз погоды в Арраял-ду-Кабу
  • Монитор погоды в Арраял-ду-Кабу

АРХИВ ПОГОДЫ в Арраял-ду-Кабу

Время (UTC), дата Ветер
(напр.,м/с)
 
Видим.   Явления Облачность Т
(С)
Тd
(С)
f
(%)
Тe
(С)
Тes
(С)
Комфортность P
(гПа)
Po
(гПа)
Тmin
(С)
Tmax
(С)
R
(мм)
R24
(мм)
S
(см)
07 11.02 СВ 4
{6}
н/о н/о +25.6 -22.8 3 +22 +22 комфорт 1012.3 1011.9
08 11.02 СВ 5
{8}
н/о н/о +25.8 -22.7 3 +22 +22 комфорт 1012.5 1012.1
09 11.02 СВ 4
{8}
н/о н/о +25.8 +21 +21 комфорт 1013.1 1012.7
10 11.02 СВ 4
{9}
н/о н/о +26.5 +22 +22 комфорт 1013.7 1013.3
11 11.02 СВ 4
{8}
н/о н/о +27.1 +22 +22 комфорт 1014.0 1013.6
12 11.02 СВ 4
{8}
н/о н/о +28.1 +23 +23 комфорт 1014.2 1013.8
13 11.02 СВ 5
{7}
н/о н/о +28.3 +23 +23 комфорт 1014.0 1013.6
15 11.02 СВ 4
{7}
н/о н/о +29.9 +25 +25 комфорт 1013.4 1013.0
16 11.02 СВ 4
{7}
н/о н/о +30.4 +25 +25 комфорт 1013.0 1012.6
17 11.02 СВ 4
{6}
н/о н/о +30.1 +29.5 97 +54 +54 опасность
перегрева
1012.3 1011.9
18 11.02 В 5
{7}
н/о н/о +29.4 +29.4 100 +53 +53 опасность
перегрева
1012.0 1011.6
19 11.02 В 5
{7}
н/о н/о +28.9 +24 +24 комфорт 1011.7 1011.3
20 11.02 СВ 4
{7}
н/о н/о +28.1 +23 +23 комфорт 1011.7 1011.3
21 11.02 В 5
{8}
н/о н/о +27.3 +23 +23 комфорт 1011.7 1011.3
22 11.02 СВ 4
{8}
н/о н/о +26.4 +22 +22 комфорт 1012.1 1011.7
23 11.02 СВ 4
{7}
н/о н/о +26.2 +22 +22 комфорт 1012.8 1012.4
00 12.02 СВ 4
{7}
н/о н/о +26.2 +22 +22 комфорт 1013.3 1012.9
01 12.02 СВ 4
{7}
н/о н/о +26.2 +22 +22 комфорт 1013.5 1013.1
02 12.02 СВ 4
{8}
н/о н/о +26.0 +22 +22 комфорт 1013.2 1012.8
03 12.02 В 3
{7}
н/о н/о +25.7 +21 +21 комфорт 1012.9 1012.5
04 12.02 СВ 4
{8}
н/о н/о +25.7 +21 +21 комфорт 1011.9 1011.5
05 12.02 СВ 4
{9}
н/о н/о +25.7 +21 +21 комфорт 1011.6 1011.2
06 12.02 СВ 4
{9}
н/о н/о +25.4 +21 +21 комфорт 1011.3 1010.9
07 12.02 СВ 4
{7}
н/о н/о +25.2 -18.9 4 +22 +22 комфорт 1011.2 1010.8
08 12.02 СВ 4
{6}
н/о н/о +25.0 -23.3 3 +21 +21 комфорт 1011.6 1011.2
09 12.02 СВ 3
{6}
н/о н/о +25.0 -23.3 3 +21 +21 комфорт 1011.6 1011.2
10 12.02 СВ 4
{5}
н/о н/о +25.6 -22.9 3 +22 +22 комфорт 1012.2 1011.8
11 12.02 В 3
{6}
н/о н/о +26.4 -22.3 3 +22 +22 комфорт 1012.6 1012.2
12 12.02 В 3
{5}
н/о н/о +26.7 +22 +22 комфорт 1012.9 1012.5
13 12.02 В 3
{5}
н/о н/о +27.8 +23 +23 комфорт 1012.7 1012.3
14 12.02 В 2
{4}
н/о н/о +28.1 +23 +23 комфорт 1012.8 1012.4
15 12.02 В 2
{3}
н/о н/о +30.8 +26 +26 жарко 1012.0 1011.6
16 12.02 Ю 2
{3}
н/о н/о +29.5 +24 +24 комфорт 1011.0 1010.6
17 12.02 Ю 1
{3}
н/о н/о +30.4 +25 +25 комфорт 1010.5 1010.1
18 12.02 Ю 2
{3}
н/о н/о +30.0 +25 +25 комфорт 1010.2 1009.8
19 12.02 ЮЗ 1
{3}
н/о н/о +29.9 +25 +25 комфорт 1009.8 1009.4
20 12.02 В 2
{3}
н/о н/о +30.7 +30.0 96 +57 +57 опасность
перегрева
1009.7 1009.3
21 12.02 ЮВ 1
{3}
н/о н/о +27.5 +23 +23 комфорт 1010.0 1009.6
22 12.02 ЮВ 2
{2}
н/о н/о +26.7 +22 +22 комфорт 1010.8 1010.4
23 12.02 СЗ 1
{2}
н/о н/о +27.5 +23 +23 комфорт 1012.2 1011.8
00 13.02 З 2
{3}
н/о н/о +26.8 +22 +22 комфорт 1013.2 1012.8
01 13.02 З 3
{5}
н/о н/о +25.2 +21 +21 комфорт 1013.6 1013.2
02 13.02 З 3
{6}
н/о н/о +24.7 -23.5 3 +21 +21 комфорт 1013.6 1013.2
03 13.02 З 2
{6}
н/о н/о +23.9 -24.0 3 +21 +21 комфорт 1012.6 1012.2
04 13.02 З 3
{5}
н/о н/о +24.3 -23.7 3 +21 +21 комфорт 1011.7 1011.3
05 13.02 З 2
{5}
н/о н/о +22.9 -24.7 3 +20 +20 1011.7 1011.3
06 13.02 З 2
{5}
н/о н/о +23.9 -24.0 3 +21 +21 комфорт 1011.1 1010.7
07 13.02 З 2
{5}
н/о н/о +25.3 +21 +21 комфорт 1011.2 1010.8
08 13.02 З 3
{5}
н/о н/о +24.8 -23.4 3 +21 +21 комфорт 1011.7 1011.3
09 13.02 З 2
{5}
н/о н/о +23.1 -24.6 3 +20 +20 1012.2 1011.8
10 13.02 З 2
{6}
н/о н/о +22.3 -25.1 3 +19 +19 1012.9 1012.5 12
11 13.02 З 2
{4}
н/о н/о +23.0 -24.6 3 +20 +20 1013.2 1012.8 3
13 13.02 В 2
{5}
н/о н/о +25.5 -22.9 3 +22 +22 комфорт 1014.1 1013.7 0.2
14 13.02 В 3
{6}
н/о н/о +25.4 -23.0 3 +22 +22 комфорт 1014.5 1014.1
15 13.02 СВ 2
{7}
н/о н/о +25.0 -23.3 3 +21 +21 комфорт 1014.7 1014.3
16 13.02 В 4
{8}
н/о н/о +25.5 +21 +21 комфорт 1014.5 1014.1
17 13.02 В 3
{8}
н/о н/о +25.6 +21 +21 комфорт 1014.4 1014.0
18 13.02 В 3
{6}
н/о н/о +25.6 +21 +21 комфорт 1014.4 1014.0
19 13.02 В 2
{5}
н/о н/о +25.4 +21 +21 комфорт 1014.3 1013.9
20 13.02 ЮВ 3
{7}
н/о н/о +25.4 +21 +21 комфорт 1014.8 1014.4
21 13.02 В 2
{6}
н/о н/о +25.1 +21 +21 комфорт 1015.2 1014.8
22 13.02 В 1
{4}
н/о н/о +25.0 +21 +21 комфорт 1016.0 1015.6
23 13.02 З 1
{2}
н/о н/о +24.5 +21 +21 комфорт 1016.7 1016.3
00 14.02 СВ 1
{3}
н/о н/о +24.9 +21 +21 комфорт 1017.1 1016.7
01 14.02 ЮЗ 1
{2}
н/о н/о +24.3 +20 +20 1017.1 1016.7
02 14.02 ЮЗ 1
{1}
н/о н/о +22.9 +19 +19 1016.8 1016.4
03 14.02 З 1
{2}
н/о н/о +23.2 +19 +19 1016.3 1015.9
04 14.02 З 1
{2}
н/о н/о +22.9 +19 +19 1016.0 1015.6
05 14.02 Ю 1
{2}
н/о н/о +22.3 +19 +19 1015.4 1015.0
06 14.02 штиль 0
{1}
н/о н/о +22.0 +19 +19 1015.2 1014.8
07 14.02 З 1
{1}
н/о н/о +22.0 +19 +19 1015.3 1014.9
08 14.02 ЮЗ 1
{1}
н/о н/о +22.0 -25.2 3 +19 +19 1015.5 1015.1
09 14.02 ЮЗ 1
{1}
н/о н/о +22.4 -25.0 3 +19 +19 1016.1 1015.7
10 14.02 З 1
{1}
н/о н/о +23.9 -24.0 3 +21 +21 комфорт 1016.7 1016.3
11 14.02 З 1
{3}
н/о н/о +23.1 +19 +19 1017.1 1016.7 0.6
12 14.02 З 1
{2}
н/о н/о +24.3 +20 +20 1017.6 1017.2
13 14.02 ЮЗ 1
{2}
н/о н/о +24.8 +21 +21 комфорт 1017.9 1017.5
14 14.02 З 1
{3}
н/о н/о +26.6 +22 +22 комфорт 1017.7 1017.3
15 14.02 Ю 1
{3}
н/о н/о +26.1 +26.0 99 +39 +39 очень
душно
1017.3 1016.9
16 14.02 Ю 2
{3}
н/о н/о +26.3 +22 +22 комфорт 1016.8 1016.4
18 14.02 Ю 2
{3}
н/о н/о +26.8 +23.4 82 +36 +36 очень
душно
1016.0 1015.6
19 14.02 Ю 2
{4}
н/о н/о +27.0 +22.2 75 +35 +35 очень
душно
1015.8 1015.4
20 14.02 ЮВ 2
{3}
н/о н/о +26.1 +21.1 74 +33 +33 очень
душно
1015.6 1015.2
21 14.02 Ю 1
{3}
н/о н/о +25.1 +22.1 83 +32 +32 очень
душно
1015.9 1015.5
22 14.02 ЮВ 1
{2}
н/о н/о +24.6 +23.1 91 +33 +33 очень
душно
1016.0 1015.6
23 14.02 Ю 1
{2}
н/о н/о +24.4 +24.4 100 +34 +34 очень
душно
1016.3 1015.9
00 15.02 ЮВ 1
{2}
н/о н/о +24.1 +20 +20 1016.6 1016.2
01 15.02 штиль 0
{2}
н/о н/о +23.6 +20 +20 1016.7 1016.3
02 15.02 штиль 0
{1}
н/о н/о +22.5 +19 +19 1016.6 1016.2
03 15.02 штиль 0
{1}
н/о н/о +22.5 +19 +19 1015.9 1015.5
04 15.02 штиль 0
{1}
н/о н/о +22.0 +19 +19 1015.2 1014.8
05 15.02 ЮВ 1
{1}
н/о н/о +22.1 +19 +19 1014.2 1013.8
06 15.02 штиль 0
{1}
н/о н/о +22.0 +19 +19 1013.9 1013.5
07 15.02 ЮВ 1
{1}
н/о н/о +21.7 -25.5 3 +19 +19 1013.6 1013.2
08 15.02 ЮВ 1
{1}
н/о н/о +22.2 -25.1 3 +19 +19 1013.3 1012.9
09 15.02 В 1
{1}
н/о н/о +22.4 -25.0 3 +19 +19 1013.5 1013.1
10 15.02 В 1
{2}
н/о н/о +23.7 -24.2 3 +20 +20 1013.4 1013.0
11 15.02 В 2
{3}
н/о н/о +24.8 -23.4 3 +21 +21 комфорт 1013.6 1013.2
12 15.02 В 3
{4}
н/о н/о +26.4 +22 +22 комфорт 1013.7 1013.3
15 15.02 В 3
{4}
н/о н/о +26.7 +22 +22 комфорт 1012.5 1012.1
16 15.02 В 4
{5}
н/о н/о +26.1 +22 +22 комфорт 1011.8 1011.4
17 15.02 В 3
{4}
н/о н/о +23.7 +20 +20 1011.9 1011.5 1
18 15.02 В 3
{4}
н/о н/о +23.2 +19 +19 1011.4 1011.0 1
19 15.02 В 3
{4}
н/о н/о +24.2 +20 +20 1010.6 1010.2
20 15.02 В 3
{4}
н/о н/о +24.5 +21 +21 комфорт 1010.2 1009.8
21 15.02 В 3
{5}
н/о н/о +24.5 +21 +21 комфорт 1010.4 1010.0
22 15.02 СВ 4
{5}
н/о н/о +24.3 +20 +20 1010.3 1009.9
23 15.02 В 4
{5}
н/о н/о +24.3 +20 +20 1010.4 1010.0
00 16.02 СВ 4
{5}
н/о н/о +24.3 +20 +20 1010.4 1010.0
01 16.02 В 5
{6}
н/о н/о +24.8 +21 +21 комфорт 1010.5 1010.1
02 16.02 В 4
{6}
н/о н/о +24.7 +21 +21 комфорт 1010.6 1010.2
03 16.02 СВ 4
{7}
н/о н/о +24.4 +20 +20 1010.3 1009.9 0.2
04 16.02 В 4
{7}
н/о н/о +24.2 -23.8 3 +21 +21 комфорт 1009.3 1008.9
05 16.02 В 4
{6}
н/о н/о +24.3 -23.7 3 +21 +21 комфорт 1008.4 1008.0
06 16.02 В 4
{6}
н/о н/о +24.6 -23.5 3 +21 +21 комфорт 1008.1 1007.7
07 16.02 СВ 3
{7}
н/о н/о +24.1 -23.8 3 +21 +21 комфорт 1008.2 1007.8 1
08 16.02 В 3
{6}
н/о н/о +24.2 +20 +20 1008.4 1008.0 0.4
09 16.02 СВ 4
{7}
н/о н/о +24.3 -23.7 3 +21 +21 комфорт 1008.0 1007.6 0.6
10 16.02 СВ 3
{7}
н/о н/о +24.6 -23.5 3 +21 +21 комфорт 1008.7 1008.3
11 16.02 СВ 4
{6}
н/о н/о +24.7 -23.4 3 +21 +21 комфорт 1008.7 1008.3
12 16.02 СВ 3
{7}
н/о н/о +25.0 -23.2 3 +21 +21 комфорт 1009.1 1008.7
14 16.02 В 2
{5}
н/о н/о +25.4 -15.2 6 +22 +22 комфорт 1009.0 1008.6
15 16.02 В 2
{3}
н/о н/о +24.8 -23.4 3 +21 +21 комфорт 1008.9 1008.5 0.4
16 16.02 В 2
{2}
н/о н/о +25.5 -22.9 3 +22 +22 комфорт 1008.4 1008.0
17 16.02 В 2
{2}
н/о н/о +25.5 -22.9 3 +22 +22 комфорт 1008.1 1007.7
18 16.02 СВ 2
{4}
н/о н/о +26.9 -22.0 3 +23 +23 комфорт 1007.7 1007.3
19 16.02 СВ 2
{3}
н/о н/о +26.4 -22.3 3 +22 +22 комфорт 1007.2 1006.8
20 16.02 В 2
{3}
н/о н/о +25.8 +21 +21 комфорт 1006.9 1006.5
21 16.02 В 2
{3}
н/о н/о +24.7 -23.5 3 +21 +21 комфорт 1007.2 1006.8
22 16.02 В 3
{3}
н/о н/о +24.4 -23.6 3 +21 +21 комфорт 1007.9 1007.5
23 16.02 В 3
{4}
н/о н/о +24.6 -23.5 3 +21 +21 комфорт 1008.6 1008.2
00 17.02 В 3
{4}
н/о н/о +24.7 -23.4 3 +21 +21 комфорт 1009.1 1008.7
01 17.02 В 4
{4}
н/о н/о +24.5 -23.6 3 +21 +21 комфорт 1009.8 1009.4
02 17.02 В 4
{5}
н/о н/о +24.8 -23.4 3 +21 +21 комфорт 1010.1 1009.7
03 17.02 В 3
{5}
н/о н/о +24.5 -23.6 3 +21 +21 комфорт 1009.7 1009.3 0.2
04 17.02 В 2
{4}
н/о н/о +24.4 -23.7 3 +21 +21 комфорт 1009.1 1008.7
05 17.02 СВ 2
{4}
н/о н/о +24.3 -23.8 3 +21 +21 комфорт 1008.1 1007.7
06 17.02 В 1
{3}
н/о н/о +24.3 -23.7 3 +21 +21 комфорт 1007.3 1006.9
07 17.02 В 1
{2}
н/о н/о +23.9 -24.0 3 +21 +21 комфорт 1007.3 1006.9
08 17.02 ЮВ 1
{2}
н/о н/о +23.9 -24.0 3 +21 +21 комфорт 1007.7 1007.3
09 17.02 ЮВ 1
{2}
н/о н/о +24.0 -24.0 3 +21 +21 комфорт 1008.2 1007.8
10 17.02 В 1
{1}
н/о н/о +25.3 -23.1 3 +22 +22 комфорт 1009.1 1008.7
11 17.02 В 2
{3}
н/о н/о +26.1 -22.5 3 +22 +22 комфорт 1009.9 1009.5
12 17.02 В 2
{3}
н/о н/о +28.2 -21.1 3 +24 +24 комфорт 1009.8 1009.4
13 17.02 В 1
{3}
н/о н/о +27.7 -21.4 3 +23 +23 комфорт 1009.5 1009.1
14 17.02 В 2
{3}
н/о н/о +27.6 +23 +23 комфорт 1009.6 1009.2
15 17.02 В 2
{3}
н/о н/о +28.3 +23 +23 комфорт 1009.7 1009.3
16 17.02 В 2
{3}
н/о н/о +30.2 +25 +25 комфорт 1009.1 1008.7
17 17.02 В 2
{3}
н/о н/о +29.1 +24 +24 комфорт 1008.5 1008.1
18 17.02 ЮВ 2
{3}
н/о н/о +29.3 +24 +24 комфорт 1008.0 1007.6
19 17.02 В 2
{2}
н/о н/о +28.2 +23 +23 комфорт 1008.0 1007.6
20 17.02 В 2
{3}
н/о н/о +27.4 +23 +23 комфорт 1008.6 1008.2
21 17.02 В 1
{3}
н/о н/о +26.6 +22 +22 комфорт 1009.7 1009.3
22 17.02 В 2
{4}
н/о н/о +25.3 -23.1 3 +22 +22 комфорт 1010.8 1010.4 11
23 17.02 З 1
{2}
н/о н/о +25.1 -18.8 4 +22 +22 комфорт 1011.5 1011.1 0.6
00 18.02 З 1
{2}
н/о н/о +24.2 -23.8 3 +21 +21 комфорт 1012.0 1011.6 0.4
01 18.02 З 1
{2}
н/о н/о +24.6 -23.6 3 +21 +21 комфорт 1012.4 1012.0 1
02 18.02 З 1
{2}
н/о н/о +24.6 -23.5 3 +21 +21 комфорт 1012.1 1011.7
03 18.02 СЗ 1
{2}
н/о н/о +24.7 -23.5 3 +21 +21 комфорт 1011.6 1011.2
05 18.02 В 1
{1}
н/о н/о +24.2 -23.8 3 +21 +21 комфорт 1010.2 1009.8
06 18.02 Ю 1
{1}
н/о н/о +23.8 -24.0 3 +20 +20 1009.9 1009.5
07 18.02 ЮЗ 2
{3}
н/о н/о +24.2 -23.8 3 +21 +21 комфорт 1010.3 1009.9

 

Местоположение метеостанции Арраял-ду-Кабу (Рио-де-Жанейро, Бразилия): широта -22.98 долгота -42.02 высота над уровнем моря 6 м.

В архиве по умолчанию представлена погода в Арраял-ду-Кабу за последнюю неделю. Архивные данные за месяц целиком и за предыдущие месяцы, начиная с января 2011 года, Вы можете получить, выбрав интересующий диапазон дат из раскрывающегося списка и нажав кнопку "Ввод!".


*Определитесь, кто Вы:
робот инопланетянин человек

Внимание! Время в таблицах - всемирное. Для получения местного времени необходимо прибавить поправку, которая равна -3 ч.

Смотрите также архив погоды в соседних городах и на ближайших метеорологических станциях:

Погода в Макаэ (Рио-де-Жанейро, Бразилия) (70 км)
Погода в Нова-Фрибургу (Рио-де-Жанейро, Бразилия) (99 км)
Погода в Кордейру (Рио-де-Жанейро, Бразилия) (111 км)
Погода в Терезополисе (Рио-де-Жанейро, Бразилия) (116 км)
Погода на Маяке Ilha Rasa (Рио-де-Жанейро, Бразилия) (116 км)
Погода в Рио-де-Жанейро аэропорту (Рио-де-Жанейро, Бразилия) (117 км)
Погода в Рио-де-Жанейро (Рио-де-Жанейро, Бразилия) (118 км)
Погода в Рио-де-Жанейро - Форте-де-Копакабана (Рио-де-Жанейро, Бразилия) (120 км)
Погода в Галеао (Рио-де-Жанейро, Бразилия) (127 км)
Погода в Ксереме (Рио-де-Жанейро, Бразилия) (136 км)

Пояснения к столбцам:

Ветер - указаны скорость ветра в м/с - средняя за 10 мин, порывы в срок и между сроками (в фигурных скобках) и направление, откуда дует ветер: С - северный, СВ - северо-восточный, В - восточный, ЮВ - юго-восточный, Ю - южный, ЮЗ - юго-западный, З - западный, СЗ - северо-западный.
Видимость - горизонтальная дальность видимости в метрах или километрах. При видимости от 1 до 10 км при отсутствии осадков обычно наблюдается дымка, при ухудшении видимости до 1 км и менее - туман. В сухую погоду видимость может ухудшаться дымом, пылью или мглою.
Явления - указаны атмосферные явления, наблюдавшиеся в срок или в последний час перед сроком; фигурными скобками обозначены явления, наблюдавшиеся между сроками (за 1-3 часа до срока); квадратными скобками обозначены град или гололедные отложения с указанием их диаметра в мм.
Облачность - указаны через наклонную черту общая и нижняя облачность в баллах и высота нижней границы облаков в метрах; квадратными скобками обозначены формы облаков: Ci - перистые, Cs - перисто-слоистые, Cc - перисто-кучевые, Ac - высококучевые, As - высокослоистые, Sc - слоисто-кучевые, Ns - слоисто-дождевые, Cu - кучевые, Cb - кучево-дождевые. Подробнее классификацию облаков см. в Атласе облаков (PDF).
T - Температура воздуха - температура, измеренная на высоте 2 м над землей.
Td - Температура точки росы - температура, при понижении до которой содержащийся в воздухе водяной пар достигнет насыщения.
f - Относительная влажность воздуха - влажноcть воздуха, измеренная на высоте 2 м над землей.
Te - Эффективная температура - температура, которую ощущает одетый по сезону человек в тени. Характеристика душности погоды. При расчете учитывается влияние влажности воздуха и скорости ветра на теплоощущения человека.
Tes - Эффективная температура на солнце - температура, которую ощущает человек, с поправкой на солнечный нагрев. Характеристика знойности погоды. Зависит от высоты солнца над горизонтом, облачности и скорости ветра. Ночью, в пасмурную погоду, а также при ветре 12 м/с и более поправка равна нулю.
P - Атмосферное давление - приведенное к уровню моря атмосферное давление.
Po - Атмосферное давление - измеренное на уровне метеостанции атмосферное давление.
Tmin - Минимальная температура - минимум температуры воздуха на высоте 2 м над землей.
Tmax - Максимальная температура - максимум температуры воздуха на высоте 2 м над землей.
R - Количество осадков - Количество выпавших осадков за период времени, мм. При наведении курсора мыши на число - период времени, за который выпало указанное количество осадков.
R24 - Количество осадков - Количество выпавших осадков за 24 часа, мм.
S - Снежный покров - Высота снежного покрова, см. При наведении курсора мыши на число - состояние снежного покрова и степень покрытия местности в баллах.